Location: ?
(35.4064°N, 139.3593°E)
Time: 15:06:28
(UTC+00:00)

ACS3 Solar Sail - Pass Details

Date: 19 June 2024
Orbit: 993 x 1023 km, 97.4° (Epoch: 19 July)

Event Time Altitude Azimuth Distance (km) Brightness Sun altitude
Exits shadow 10:44:32 - 102° (ESE) 3,040 6.8 -8.3°
Reaches altitude 10° 10:45:48 10° 93° (E) 2,769 6.7 -8.5°
Maximum altitude 10:48:54 14° 63° (ENE) 2,460 6.7 -9.0°
Drops below altitude 10° 10:52:00 10° 32° (NNE) 2,767 7.3 -9.5°
Sets 10:55:44 0° 10° (N) 3,718 8.3 -10.1°
